Location: Madrid
(40.4000°N, 3.6830°W)
Time: 20:01:32
(UTC+02:00)

ISS - Pass Details

Date: 22 September 2020
Orbit: 419 x 421 km, 51.6° (Epoch: 30 September)

Event Time Altitude Azimuth Distance (km) Brightness Sun altitude
Rises 21:38:33 0° 277° (W) 2,363 1.8 -17.3°
Reaches altitude 10° 21:41:09 10° 298° (WNW) 1,500 0.3 -17.7°
Maximum altitude 21:43:30 18° 343° (NNW) 1,125 -1.2 -18.2°
Enters shadow 21:45:43 11° 25° (NNE) 1,460 -1.1 -18.6°
